Location: Le Petit-Vavre
(46.5081°N, 1.5239°E)
Time: 18:40:19
(UTC+00:00)

CZ-2C R/B - Pass Details

Date: 03 March 2021
Orbit: 783 x 871 km, 98.2° (Epoch: 15 April)

Event Time Altitude Azimuth Distance (km) Brightness Sun altitude
Rises 18:01:09 0° 24° (NNE) 3,428 5.6 -3.9°
Reaches altitude 10° 18:03:59 10° 37° (NE) 2,473 4.7 -4.4°
Maximum altitude 18:08:26 25° 92° (E) 1,628 3.6 -5.2°
Drops below altitude 10° 18:12:47 10° 146° (SSE) 2,411 4.8 -5.9°
Sets 18:15:30 0° 160° (SSE) 3,323 5.6 -6.4°
